INTELSAT 32E (IS-32E)

Last updated on Oct. 30, 2020, 5:57 a.m. UTC

1 41945U 17007B   20303.34933838 -.00000269  00000-0  00000+0 0  9994
2 41945   0.0132 230.9228 0000097  17.7430 232.0453  1.00266953 13628
UTC
Height (km)
Latitude
Longitude
Inclination
Orbital Period
UTC large
Height (km)
Speed (km/s)
/
Latitude / Longitude
Inclination (degrees)
Orbital Period (minutes)
Azimuth
Elevation
Range (km)
Doppler Factor
iOS Compass Heading
iOS Angle

Next 30 passes for location: Hong Kong

Rise time Rise Azimuth (degrees) Set time Set Azimuth (degrees) Duration Max altitude (degrees)

No matching passes for this satellites